Location: Bjelajci
(45.0103°N, 16.1758°E)
Time: 19:06:58
(UTC+00:00)

NOSS 3-2 (A) - Pass Details

Date: 14 July 2020
Orbit: 798 x 1410 km, 63.4° (Epoch: 05 August)

Event Time Altitude Azimuth Distance (km) Brightness Sun altitude
Exits shadow 02:21:26 - 200° (SSW) 2,583 5.2 -9.3°
Reaches altitude 10° 02:21:49 10° 199° (SSW) 2,442 5.1 -9.2°
Maximum altitude 02:27:19 59° 121° (ESE) 1,030 3.8 -8.5°
Drops below altitude 10° 02:33:34 10° 43° (NE) 2,774 7.6 -7.7°
Sets 02:36:24 0° 40° (NE) 3,823 8.9 -7.3°
